Terug naar catalogus

STARLINK-36198

ActiefCommunicatieVLEO
NORAD 67167·PAYLOAD·🇺🇸 United States

Gelanceerd Dec 17, 2025 vanaf Cape Canaveral Space Force Station

Loading…

Volgende Passages (komende 24 uur)

TLE

VersSource: CelesTrak SupGP

Epoch: Sep 15, 2026, 04:16 UTC

1 67167C 25303E   26258.17826389  .00029926  00000+0  10837-2 0  2583
2 67167  43.0006 320.9621 0001297 261.7025 349.6399 15.27570040    12

Volg STARLINK-36198 in realtime met AllMySat

Download on the App Store